owner,sensor,date,latitude,longitude,vertical_datum,sea_water_practical_salinity,qcFlag 
DISL,ioos:station:DISL:KATA:1,2017-12-01T00:00:00Z,30.2583,-88.2131,4.3,28.8,11111222 
DISL,ioos:station:DISL:KATA:1,2017-12-01T00:30:00Z,30.2583,-88.2131,4.218,28.87,1111122 
DISL,ioos:station:DISL:KATA:1,2017-12-01T01:00:00Z,30.2583,-88.2131,4.2,28.9,11111222 
DISL,ioos:station:DISL:KATA:1,2017-12-01T01:30:00Z,30.2583,-88.2131,4.219,28.88,1111122 
DISL,ioos:station:DISL:KATA:1,2017-12-01T02:00:00Z,30.2583,-88.2131,4.2,28.9,11111222 
DISL,ioos:station:DISL:KATA:1,2017-12-01T02:30:00Z,30.2583,-88.2131,4.221,28.9,1111122 
DISL,ioos:station:DISL:KATA:1,2017-12-01T03:00:00Z,30.2583,-88.2131,4.2,28.9,11111222 
DISL,ioos:station:DISL:KATA:1,2017-12-01T03:30:00Z,30.2583,-88.2131,4.199,28.88,1111122 
DISL,ioos:station:DISL:KATA:1,2017-12-01T04:00:00Z,30.2583,-88.2131,4.2,28.8,11111222 
DISL,ioos:station:DISL:KATA:1,2017-12-01T04:30:00Z,30.2583,-88.2131,4.186,28.81,1111122 
DISL,ioos:station:DISL:KATA:1,2017-12-01T05:00:00Z,30.2583,-88.2131,4.2,28.8,11111222 
DISL,ioos:station:DISL:KATA:1,2017-12-01T05:30:00Z,30.2583,-88.2131,4.117,28.79,1111122 
DISL,ioos:station:DISL:KATA:1,2017-12-01T06:00:00Z,30.2583,-88.2131,4.1,28.7,11111222 
DISL,ioos:station:DISL:KATA:1,2017-12-01T06:30:00Z,30.2583,-88.2131,4.029,28.69,1111122 
DISL,ioos:station:DISL:KATA:1,2017-12-01T07:00:00Z,30.2583,-88.2131,4.0,28.5,11111222 
DISL,ioos:station:DISL:KATA:1,2017-12-01T07:30:00Z,30.2583,-88.2131,3.933,28.37,1111122 
DISL,ioos:station:DISL:KATA:1,2017-12-01T08:00:00Z,30.2583,-88.2131,3.9,28.3,11111222 
DISL,ioos:station:DISL:KATA:1,2017-12-01T08:30:00Z,30.2583,-88.2131,3.852,28.13,1111122 
DISL,ioos:station:DISL:KATA:1,2017-12-01T09:00:00Z,30.2583,-88.2131,3.8,28.1,11111222 
DISL,ioos:station:DISL:KATA:1,2017-12-01T09:30:00Z,30.2583,-88.2131,3.809,28.02,1111122 
DISL,ioos:station:DISL:KATA:1,2017-12-01T10:00:00Z,30.2583,-88.2131,3.8,28.1,11111222 
DISL,ioos:station:DISL:KATA:1,2017-12-01T10:30:00Z,30.2583,-88.2131,3.786,28.22,1111122 
DISL,ioos:station:DISL:KATA:1,2017-12-01T11:00:00Z,30.2583,-88.2131,3.8,28.1,11111222 
DISL,ioos:station:DISL:KATA:1,2017-12-01T11:30:00Z,30.2583,-88.2131,3.773,28.16,1111122 
DISL,ioos:station:DISL:KATA:1,2017-12-01T12:00:00Z,30.2583,-88.2131,3.8,28.1,11111222 
DISL,ioos:station:DISL:KATA:1,2017-12-01T12:30:00Z,30.2583,-88.2131,3.782,28.09,1111122 
DISL,ioos:station:DISL:KATA:1,2017-12-01T13:00:00Z,30.2583,-88.2131,3.8,27.6,11111222 
DISL,ioos:station:DISL:KATA:1,2017-12-01T13:30:00Z,30.2583,-88.2131,3.828,28.12,1111122 
DISL,ioos:station:DISL:KATA:1,2017-12-01T14:00:00Z,30.2583,-88.2131,3.9,28.2,11111222 
DISL,ioos:station:DISL:KATA:1,2017-12-01T14:30:00Z,30.2583,-88.2131,3.881,28.2,1111122 
DISL,ioos:station:DISL:KATA:1,2017-12-01T15:00:00Z,30.2583,-88.2131,3.9,28.2,11111222 
DISL,ioos:station:DISL:KATA:1,2017-12-01T15:30:00Z,30.2583,-88.2131,3.941,28.27,1111122 
DISL,ioos:station:DISL:KATA:1,2017-12-01T16:00:00Z,30.2583,-88.2131,4.0,28.3,11111222 
DISL,ioos:station:DISL:KATA:1,2017-12-01T16:30:00Z,30.2583,-88.2131,3.983,28.1,1111122 
DISL,ioos:station:DISL:KATA:1,2017-12-01T17:00:00Z,30.2583,-88.2131,4.0,28.2,11111222 
DISL,ioos:station:DISL:KATA:1,2017-12-01T17:30:00Z,30.2583,-88.2131,4.014,28.16,1111122 
DISL,ioos:station:DISL:KATA:1,2017-12-01T18:00:00Z,30.2583,-88.2131,4.0,28.2,11111222 
DISL,ioos:station:DISL:KATA:1,2017-12-01T18:30:00Z,30.2583,-88.2131,4.027,28.23,1111122 
DISL,ioos:station:DISL:KATA:1,2017-12-01T19:00:00Z,30.2583,-88.2131,4.0,28.3,11111222 
DISL,ioos:station:DISL:KATA:1,2017-12-01T19:30:00Z,30.2583,-88.2131,4.044,28.27,1111122 
DISL,ioos:station:DISL:KATA:1,2017-12-01T20:00:00Z,30.2583,-88.2131,4.1,28.3,11111222 
DISL,ioos:station:DISL:KATA:1,2017-12-01T20:30:00Z,30.2583,-88.2131,4.081,28.26,1111122 
DISL,ioos:station:DISL:KATA:1,2017-12-01T21:00:00Z,30.2583,-88.2131,4.1,28.3,11111222 
DISL,ioos:station:DISL:KATA:1,2017-12-01T21:30:00Z,30.2583,-88.2131,4.143,28.27,1111122 
DISL,ioos:station:DISL:KATA:1,2017-12-01T22:00:00Z,30.2583,-88.2131,4.2,28.3,11111222 
DISL,ioos:station:DISL:KATA:1,2017-12-01T22:30:00Z,30.2583,-88.2131,4.208,28.36,1111122 
DISL,ioos:station:DISL:KATA:1,2017-12-01T23:00:00Z,30.2583,-88.2131,4.2,28.4,11111222 
DISL,ioos:station:DISL:KATA:1,2017-12-01T23:30:00Z,30.2583,-88.2131,4.261,28.24,1111122 
DISL,ioos:station:DISL:KATA:1,2017-12-02T00:00:00Z,30.2583,-88.2131,4.3,28.3,11111222 
DISL,ioos:station:DISL:KATA:1,2017-12-02T00:30:00Z,30.2583,-88.2131,4.306,28.33,1111122 
DISL,ioos:station:DISL:KATA:1,2017-12-02T01:00:00Z,30.2583,-88.2131,4.3,28.3,11111222 
DISL,ioos:station:DISL:KATA:1,2017-12-02T01:30:00Z,30.2583,-88.2131,4.331,28.3,1111122 
DISL,ioos:station:DISL:KATA:1,2017-12-02T02:00:00Z,30.2583,-88.2131,4.3,28.3,11111222 
DISL,ioos:station:DISL:KATA:1,2017-12-02T02:30:00Z,30.2583,-88.2131,4.305,28.21,1111122 
DISL,ioos:station:DISL:KATA:1,2017-12-02T03:00:00Z,30.2583,-88.2131,4.3,28.3,11111222 
DISL,ioos:station:DISL:KATA:1,2017-12-02T03:30:00Z,30.2583,-88.2131,4.276,28.1,1111122 
DISL,ioos:station:DISL:KATA:1,2017-12-02T04:00:00Z,30.2583,-88.2131,4.3,27.9,11111222 
DISL,ioos:station:DISL:KATA:1,2017-12-02T04:30:00Z,30.2583,-88.2131,4.238,28.17,1111122 
DISL,ioos:station:DISL:KATA:1,2017-12-02T05:00:00Z,30.2583,-88.2131,4.2,28.4,11111222 
DISL,ioos:station:DISL:KATA:1,2017-12-02T05:30:00Z,30.2583,-88.2131,4.169,28.38,1111122 
DISL,ioos:station:DISL:KATA:1,2017-12-02T06:00:00Z,30.2583,-88.2131,4.1,28.3,11111222 
DISL,ioos:station:DISL:KATA:1,2017-12-02T06:30:00Z,30.2583,-88.2131,4.089,28.3,1111122 
DISL,ioos:station:DISL:KATA:1,2017-12-02T07:00:00Z,30.2583,-88.2131,4.041,28.25,1111122 
DISL,ioos:station:DISL:KATA:1,2017-12-02T07:30:00Z,30.2583,-88.2131,4.0,28.2,11111222 
DISL,ioos:station:DISL:KATA:1,2017-12-02T08:00:00Z,30.2583,-88.2131,3.9,28.0,11111222 
DISL,ioos:station:DISL:KATA:1,2017-12-02T08:30:00Z,30.2583,-88.2131,3.889,27.71,1111122 
DISL,ioos:station:DISL:KATA:1,2017-12-02T09:00:00Z,30.2583,-88.2131,3.9,27.6,11111222 
DISL,ioos:station:DISL:KATA:1,2017-12-02T09:30:00Z,30.2583,-88.2131,3.807,27.65,1111122 
DISL,ioos:station:DISL:KATA:1,2017-12-02T10:00:00Z,30.2583,-88.2131,3.8,27.6,11111222 
DISL,ioos:station:DISL:KATA:1,2017-12-02T10:30:00Z,30.2583,-88.2131,3.757,27.48,1111122 
DISL,ioos:station:DISL:KATA:1,2017-12-02T11:00:00Z,30.2583,-88.2131,3.747,27.06,1111122 
DISL,ioos:station:DISL:KATA:1,2017-12-02T11:30:00Z,30.2583,-88.2131,3.7,26.8,11111222 
DISL,ioos:station:DISL:KATA:1,2017-12-02T12:00:00Z,30.2583,-88.2131,3.8,27.4,11111222 
DISL,ioos:station:DISL:KATA:1,2017-12-02T12:30:00Z,30.2583,-88.2131,3.752,27.45,1111122 
DISL,ioos:station:DISL:KATA:1,2017-12-02T13:00:00Z,30.2583,-88.2131,3.8,27.6,11111222 
DISL,ioos:station:DISL:KATA:1,2017-12-02T13:30:00Z,30.2583,-88.2131,3.763,27.86,1111122 
DISL,ioos:station:DISL:KATA:1,2017-12-02T14:00:00Z,30.2583,-88.2131,3.8,27.9,11111222 
DISL,ioos:station:DISL:KATA:1,2017-12-02T14:30:00Z,30.2583,-88.2131,3.817,27.96,1111122 
DISL,ioos:station:DISL:KATA:1,2017-12-02T15:00:00Z,30.2583,-88.2131,3.8,27.9,11111222 
DISL,ioos:station:DISL:KATA:1,2017-12-02T15:30:00Z,30.2583,-88.2131,3.866,27.89,1111122 
DISL,ioos:station:DISL:KATA:1,2017-12-02T16:00:00Z,30.2583,-88.2131,3.9,28.0,11111222 
DISL,ioos:station:DISL:KATA:1,2017-12-02T16:30:00Z,30.2583,-88.2131,3.927,27.95,1111122 
DISL,ioos:station:DISL:KATA:1,2017-12-02T17:00:00Z,30.2583,-88.2131,4.0,28.0,11111222 
DISL,ioos:station:DISL:KATA:1,2017-12-02T17:30:00Z,30.2583,-88.2131,3.993,28.22,1111122 
DISL,ioos:station:DISL:KATA:1,2017-12-02T18:00:00Z,30.2583,-88.2131,4.0,28.3,11111222 
DISL,ioos:station:DISL:KATA:1,2017-12-02T18:30:00Z,30.2583,-88.2131,4.038,28.35,1111122 
DISL,ioos:station:DISL:KATA:1,2017-12-02T19:00:00Z,30.2583,-88.2131,4.1,28.4,11111222 
DISL,ioos:station:DISL:KATA:1,2017-12-02T19:30:00Z,30.2583,-88.2131,4.079,28.43,1111122 
DISL,ioos:station:DISL:KATA:1,2017-12-02T20:00:00Z,30.2583,-88.2131,4.1,28.5,11111222 
DISL,ioos:station:DISL:KATA:1,2017-12-02T20:30:00Z,30.2583,-88.2131,4.111,28.51,1111122 
DISL,ioos:station:DISL:KATA:1,2017-12-02T21:00:00Z,30.2583,-88.2131,4.1,28.2,11111222 
DISL,ioos:station:DISL:KATA:1,2017-12-02T21:30:00Z,30.2583,-88.2131,4.155,28.27,1111122 
DISL,ioos:station:DISL:KATA:1,2017-12-02T22:00:00Z,30.2583,-88.2131,4.2,28.4,11111222 
DISL,ioos:station:DISL:KATA:1,2017-12-02T22:30:00Z,30.2583,-88.2131,4.22,28.46,1111122 
DISL,ioos:station:DISL:KATA:1,2017-12-02T23:00:00Z,30.2583,-88.2131,4.3,28.8,11111222 
DISL,ioos:station:DISL:KATA:1,2017-12-02T23:30:00Z,30.2583,-88.2131,4.288,28.47,1111122 
DISL,ioos:station:DISL:KATA:1,2017-12-03T00:00:00Z,30.2583,-88.2131,4.3,28.8,11111222 
DISL,ioos:station:DISL:KATA:1,2017-12-03T00:30:00Z,30.2583,-88.2131,4.349,28.83,1111122 
DISL,ioos:station:DISL:KATA:1,2017-12-03T01:00:00Z,30.2583,-88.2131,4.4,28.8,11111222 
DISL,ioos:station:DISL:KATA:1,2017-12-03T01:30:00Z,30.2583,-88.2131,4.387,28.83,1111122 
DISL,ioos:station:DISL:KATA:1,2017-12-03T02:00:00Z,30.2583,-88.2131,4.4,28.9,11111222 
DISL,ioos:station:DISL:KATA:1,2017-12-03T02:30:00Z,30.2583,-88.2131,4.388,28.78,1111122 
DISL,ioos:station:DISL:KATA:1,2017-12-03T03:00:00Z,30.2583,-88.2131,4.4,28.9,11111222 
DISL,ioos:station:DISL:KATA:1,2017-12-03T03:30:00Z,30.2583,-88.2131,4.354,28.62,1111122 
DISL,ioos:station:DISL:KATA:1,2017-12-03T04:00:00Z,30.2583,-88.2131,4.3,28.8,11111222 
DISL,ioos:station:DISL:KATA:1,2017-12-03T04:30:00Z,30.2583,-88.2131,4.307,28.87,1111122 
DISL,ioos:station:DISL:KATA:1,2017-12-03T05:00:00Z,30.2583,-88.2131,4.3,28.9,11111222 
DISL,ioos:station:DISL:KATA:1,2017-12-03T05:30:00Z,30.2583,-88.2131,4.252,28.84,1111122 
DISL,ioos:station:DISL:KATA:1,2017-12-03T06:00:00Z,30.2583,-88.2131,4.2,28.8,11111222 
DISL,ioos:station:DISL:KATA:1,2017-12-03T06:30:00Z,30.2583,-88.2131,4.167,28.83,1111122 
DISL,ioos:station:DISL:KATA:1,2017-12-03T07:00:00Z,30.2583,-88.2131,4.1,28.8,11111222 
DISL,ioos:station:DISL:KATA:1,2017-12-03T07:30:00Z,30.2583,-88.2131,4.049,28.7,1111122 
DISL,ioos:station:DISL:KATA:1,2017-12-03T08:00:00Z,30.2583,-88.2131,4.0,28.6,11111222 
DISL,ioos:station:DISL:KATA:1,2017-12-03T08:30:00Z,30.2583,-88.2131,3.916,28.56,1111122 
DISL,ioos:station:DISL:KATA:1,2017-12-03T09:00:00Z,30.2583,-88.2131,3.9,28.4,11111222 
DISL,ioos:station:DISL:KATA:1,2017-12-03T09:30:00Z,30.2583,-88.2131,3.793,28.23,1111122 
DISL,ioos:station:DISL:KATA:1,2017-12-03T10:00:00Z,30.2583,-88.2131,3.7,28.1,11111222 
DISL,ioos:station:DISL:KATA:1,2017-12-03T10:30:00Z,30.2583,-88.2131,3.706,27.87,1111122 
DISL,ioos:station:DISL:KATA:1,2017-12-03T11:00:00Z,30.2583,-88.2131,3.7,27.6,11111222 
DISL,ioos:station:DISL:KATA:1,2017-12-03T11:30:00Z,30.2583,-88.2131,3.668,27.95,1111122 
DISL,ioos:station:DISL:KATA:1,2017-12-03T12:00:00Z,30.2583,-88.2131,3.7,28.2,11111222 
DISL,ioos:station:DISL:KATA:1,2017-12-03T12:30:00Z,30.2583,-88.2131,3.686,28.31,1111122 
DISL,ioos:station:DISL:KATA:1,2017-12-03T13:00:00Z,30.2583,-88.2131,3.7,28.3,11111222 
DISL,ioos:station:DISL:KATA:1,2017-12-03T13:30:00Z,30.2583,-88.2131,3.724,28.36,1111122 
DISL,ioos:station:DISL:KATA:1,2017-12-03T14:00:00Z,30.2583,-88.2131,3.7,28.4,11111222 
DISL,ioos:station:DISL:KATA:1,2017-12-03T14:30:00Z,30.2583,-88.2131,3.753,28.39,1111122 
DISL,ioos:station:DISL:KATA:1,2017-12-03T15:00:00Z,30.2583,-88.2131,3.8,28.4,11111222 
DISL,ioos:station:DISL:KATA:1,2017-12-03T15:30:00Z,30.2583,-88.2131,3.8,28.43,1111122 
DISL,ioos:station:DISL:KATA:1,2017-12-03T16:00:00Z,30.2583,-88.2131,3.8,28.4,11111222 
DISL,ioos:station:DISL:KATA:1,2017-12-03T16:30:00Z,30.2583,-88.2131,3.868,28.41,1111122 
DISL,ioos:station:DISL:KATA:1,2017-12-03T17:00:00Z,30.2583,-88.2131,3.9,28.2,11111222 
DISL,ioos:station:DISL:KATA:1,2017-12-03T17:30:00Z,30.2583,-88.2131,3.938,28.53,1111122 
DISL,ioos:station:DISL:KATA:1,2017-12-03T18:00:00Z,30.2583,-88.2131,4.0,28.4,11111222 
DISL,ioos:station:DISL:KATA:1,2017-12-03T18:30:00Z,30.2583,-88.2131,4.018,28.45,1111122 
DISL,ioos:station:DISL:KATA:1,2017-12-03T19:00:00Z,30.2583,-88.2131,4.1,28.5,11111222 
DISL,ioos:station:DISL:KATA:1,2017-12-03T19:30:00Z,30.2583,-88.2131,4.09,28.62,1111122 
DISL,ioos:station:DISL:KATA:1,2017-12-03T20:00:00Z,30.2583,-88.2131,4.1,28.5,11111222 
DISL,ioos:station:DISL:KATA:1,2017-12-03T20:30:00Z,30.2583,-88.2131,4.152,28.65,1111122 
DISL,ioos:station:DISL:KATA:1,2017-12-03T21:00:00Z,30.2583,-88.2131,4.2,28.5,11111222 
DISL,ioos:station:DISL:KATA:1,2017-12-03T21:30:00Z,30.2583,-88.2131,4.197,28.41,1111122 
DISL,ioos:station:DISL:KATA:1,2017-12-03T22:00:00Z,30.2583,-88.2131,4.2,28.4,11111222 
DISL,ioos:station:DISL:KATA:1,2017-12-03T22:30:00Z,30.2583,-88.2131,4.25,28.38,1111122 
DISL,ioos:station:DISL:KATA:1,2017-12-03T23:00:00Z,30.2583,-88.2131,4.3,28.4,11111222 
DISL,ioos:station:DISL:KATA:1,2017-12-03T23:30:00Z,30.2583,-88.2131,4.312,28.42,1111122 
DISL,ioos:station:DISL:KATA:1,2017-12-04T00:00:00Z,30.2583,-88.2131,4.3,28.5,11111222 
DISL,ioos:station:DISL:KATA:1,2017-12-04T00:30:00Z,30.2583,-88.2131,4.385,28.61,1111122 
DISL,ioos:station:DISL:KATA:1,2017-12-04T01:00:00Z,30.2583,-88.2131,4.4,28.6,11111222 
DISL,ioos:station:DISL:KATA:1,2017-12-04T01:30:00Z,30.2583,-88.2131,4.449,28.64,1111122 
DISL,ioos:station:DISL:KATA:1,2017-12-04T02:00:00Z,30.2583,-88.2131,4.473,28.72,1111122 
DISL,ioos:station:DISL:KATA:1,2017-12-04T02:30:00Z,30.2583,-88.2131,4.5,28.8,11111222 
DISL,ioos:station:DISL:KATA:1,2017-12-04T03:00:00Z,30.2583,-88.2131,4.5,28.7,11111222 
DISL,ioos:station:DISL:KATA:1,2017-12-04T03:30:00Z,30.2583,-88.2131,4.446,28.67,1111122 
DISL,ioos:station:DISL:KATA:1,2017-12-04T04:00:00Z,30.2583,-88.2131,4.4,28.6,11111222 
DISL,ioos:station:DISL:KATA:1,2017-12-04T04:30:00Z,30.2583,-88.2131,4.392,28.41,1111122 
DISL,ioos:station:DISL:KATA:1,2017-12-04T05:00:00Z,30.2583,-88.2131,4.4,28.5,11111222 
DISL,ioos:station:DISL:KATA:1,2017-12-04T05:30:00Z,30.2583,-88.2131,4.333,28.65,1111122 
DISL,ioos:station:DISL:KATA:1,2017-12-04T06:00:00Z,30.2583,-88.2131,4.3,28.7,11111222 
DISL,ioos:station:DISL:KATA:1,2017-12-04T06:30:00Z,30.2583,-88.2131,4.269,28.61,1111122 
DISL,ioos:station:DISL:KATA:1,2017-12-04T07:00:00Z,30.2583,-88.2131,4.2,28.6,11111222 
DISL,ioos:station:DISL:KATA:1,2017-12-04T07:30:00Z,30.2583,-88.2131,4.183,28.53,1111122 
DISL,ioos:station:DISL:KATA:1,2017-12-04T08:00:00Z,30.2583,-88.2131,4.1,28.5,11111222 
DISL,ioos:station:DISL:KATA:1,2017-12-04T08:30:00Z,30.2583,-88.2131,4.055,28.36,1111122 
DISL,ioos:station:DISL:KATA:1,2017-12-04T09:00:00Z,30.2583,-88.2131,4.0,28.4,11111222 
DISL,ioos:station:DISL:KATA:1,2017-12-04T09:30:00Z,30.2583,-88.2131,3.913,28.13,1111122 
DISL,ioos:station:DISL:KATA:1,2017-12-04T10:00:00Z,30.2583,-88.2131,3.9,27.8,11111222 
DISL,ioos:station:DISL:KATA:1,2017-12-04T10:30:00Z,30.2583,-88.2131,3.787,27.57,1111122 
DISL,ioos:station:DISL:KATA:1,2017-12-04T11:00:00Z,30.2583,-88.2131,3.7,27.4,11111222 
DISL,ioos:station:DISL:KATA:1,2017-12-04T11:30:00Z,30.2583,-88.2131,3.711,26.93,1111122 
DISL,ioos:station:DISL:KATA:1,2017-12-04T12:00:00Z,30.2583,-88.2131,3.7,27.0,11111222 
DISL,ioos:station:DISL:KATA:1,2017-12-04T12:30:00Z,30.2583,-88.2131,3.681,26.9,1111122 
DISL,ioos:station:DISL:KATA:1,2017-12-04T13:00:00Z,30.2583,-88.2131,3.7,27.2,11111222 
DISL,ioos:station:DISL:KATA:1,2017-12-04T13:30:00Z,30.2583,-88.2131,3.689,27.67,1111122 
DISL,ioos:station:DISL:KATA:1,2017-12-04T14:00:00Z,30.2583,-88.2131,3.7,27.8,11111222 
DISL,ioos:station:DISL:KATA:1,2017-12-04T14:30:00Z,30.2583,-88.2131,3.721,27.88,1111122 
DISL,ioos:station:DISL:KATA:1,2017-12-04T15:00:00Z,30.2583,-88.2131,3.7,27.9,11111222 
DISL,ioos:station:DISL:KATA:1,2017-12-04T15:30:00Z,30.2583,-88.2131,3.735,27.77,1111122 
DISL,ioos:station:DISL:KATA:1,2017-12-04T16:00:00Z,30.2583,-88.2131,3.8,27.8,11111222 
DISL,ioos:station:DISL:KATA:1,2017-12-04T16:30:00Z,30.2583,-88.2131,3.779,27.67,1111122 
DISL,ioos:station:DISL:KATA:1,2017-12-04T17:00:00Z,30.2583,-88.2131,3.8,27.9,11111222 
DISL,ioos:station:DISL:KATA:1,2017-12-04T17:30:00Z,30.2583,-88.2131,3.861,27.79,1111122 
DISL,ioos:station:DISL:KATA:1,2017-12-04T18:00:00Z,30.2583,-88.2131,3.9,28.0,11111222 
DISL,ioos:station:DISL:KATA:1,2017-12-04T18:30:00Z,30.2583,-88.2131,3.939,27.98,1111122 
DISL,ioos:station:DISL:KATA:1,2017-12-04T19:00:00Z,30.2583,-88.2131,4.0,27.9,11111222 
DISL,ioos:station:DISL:KATA:1,2017-12-04T19:30:00Z,30.2583,-88.2131,4.012,27.71,1111122 
DISL,ioos:station:DISL:KATA:1,2017-12-04T20:00:00Z,30.2583,-88.2131,4.1,27.8,11111222 
DISL,ioos:station:DISL:KATA:1,2017-12-04T20:30:00Z,30.2583,-88.2131,4.081,27.7,1111122 
DISL,ioos:station:DISL:KATA:1,2017-12-04T21:00:00Z,30.2583,-88.2131,4.1,27.7,11111222 
DISL,ioos:station:DISL:KATA:1,2017-12-04T21:30:00Z,30.2583,-88.2131,4.147,27.76,1111122 
DISL,ioos:station:DISL:KATA:1,2017-12-04T22:00:00Z,30.2583,-88.2131,4.2,27.7,11111222 
DISL,ioos:station:DISL:KATA:1,2017-12-04T22:30:00Z,30.2583,-88.2131,4.219,27.64,1111122 
DISL,ioos:station:DISL:KATA:1,2017-12-04T23:00:00Z,30.2583,-88.2131,4.2,27.5,11111222 
DISL,ioos:station:DISL:KATA:1,2017-12-04T23:30:00Z,30.2583,-88.2131,4.285,27.57,1111122 
DISL,ioos:station:DISL:KATA:1,2017-12-05T00:00:00Z,30.2583,-88.2131,4.3,27.2,11111222 
DISL,ioos:station:DISL:KATA:1,2017-12-05T00:30:00Z,30.2583,-88.2131,4.37,27.11,1111122 
DISL,ioos:station:DISL:KATA:1,2017-12-05T01:00:00Z,30.2583,-88.2131,4.4,27.3,11111222 
DISL,ioos:station:DISL:KATA:1,2017-12-05T01:30:00Z,30.2583,-88.2131,4.466,27.54,1111122 
DISL,ioos:station:DISL:KATA:1,2017-12-05T02:00:00Z,30.2583,-88.2131,4.5,27.6,11111222 
DISL,ioos:station:DISL:KATA:1,2017-12-05T02:30:00Z,30.2583,-88.2131,4.533,27.78,1111122 
DISL,ioos:station:DISL:KATA:1,2017-12-05T03:00:00Z,30.2583,-88.2131,4.6,27.3,11111222 
DISL,ioos:station:DISL:KATA:1,2017-12-05T03:30:00Z,30.2583,-88.2131,4.571,27.94,1111122 
DISL,ioos:station:DISL:KATA:1,2017-12-05T04:00:00Z,30.2583,-88.2131,4.6,27.9,11111222 
DISL,ioos:station:DISL:KATA:1,2017-12-05T04:30:00Z,30.2583,-88.2131,4.562,27.93,1111122 
DISL,ioos:station:DISL:KATA:1,2017-12-05T05:00:00Z,30.2583,-88.2131,4.5,27.9,11111222 
DISL,ioos:station:DISL:KATA:1,2017-12-05T05:30:00Z,30.2583,-88.2131,4.513,27.34,1111122 
DISL,ioos:station:DISL:KATA:1,2017-12-05T06:00:00Z,30.2583,-88.2131,4.5,27.9,11111222 
DISL,ioos:station:DISL:KATA:1,2017-12-05T06:30:00Z,30.2583,-88.2131,4.45,27.76,1111122 
DISL,ioos:station:DISL:KATA:1,2017-12-05T07:00:00Z,30.2583,-88.2131,4.4,27.8,11111222 
DISL,ioos:station:DISL:KATA:1,2017-12-05T07:30:00Z,30.2583,-88.2131,4.389,26.58,1111122 
DISL,ioos:station:DISL:KATA:1,2017-12-05T08:00:00Z,30.2583,-88.2131,4.4,27.3,11111222 
DISL,ioos:station:DISL:KATA:1,2017-12-05T08:30:00Z,30.2583,-88.2131,4.304,26.99,1111122 
DISL,ioos:station:DISL:KATA:1,2017-12-05T09:00:00Z,30.2583,-88.2131,4.2,27.4,11111222 
DISL,ioos:station:DISL:KATA:1,2017-12-05T09:30:00Z,30.2583,-88.2131,4.176,27.48,1111122 
DISL,ioos:station:DISL:KATA:1,2017-12-05T10:00:00Z,30.2583,-88.2131,4.1,26.9,11111222 
DISL,ioos:station:DISL:KATA:1,2017-12-05T10:30:00Z,30.2583,-88.2131,4.049,27.07,1111122 
DISL,ioos:station:DISL:KATA:1,2017-12-05T11:00:00Z,30.2583,-88.2131,4.0,26.2,11111222 
DISL,ioos:station:DISL:KATA:1,2017-12-05T11:30:00Z,30.2583,-88.2131,3.931,27.14,1111122 
DISL,ioos:station:DISL:KATA:1,2017-12-05T12:00:00Z,30.2583,-88.2131,3.9,26.9,11111222 
DISL,ioos:station:DISL:KATA:1,2017-12-05T12:30:00Z,30.2583,-88.2131,3.848,26.81,1111122 
DISL,ioos:station:DISL:KATA:1,2017-12-05T13:00:00Z,30.2583,-88.2131,3.8,27.0,11111222 
DISL,ioos:station:DISL:KATA:1,2017-12-05T13:30:00Z,30.2583,-88.2131,3.796,27.11,1111122 
DISL,ioos:station:DISL:KATA:1,2017-12-05T14:00:00Z,30.2583,-88.2131,3.8,27.0,11111222 
DISL,ioos:station:DISL:KATA:1,2017-12-05T14:30:00Z,30.2583,-88.2131,3.783,26.98,1111122 
DISL,ioos:station:DISL:KATA:1,2017-12-05T15:00:00Z,30.2583,-88.2131,3.8,27.0,11111222 
DISL,ioos:station:DISL:KATA:1,2017-12-05T15:30:00Z,30.2583,-88.2131,3.79,26.89,1111122 
DISL,ioos:station:DISL:KATA:1,2017-12-05T16:00:00Z,30.2583,-88.2131,3.8,26.9,11111222 
DISL,ioos:station:DISL:KATA:1,2017-12-05T16:30:00Z,30.2583,-88.2131,3.802,26.93,1111122 
DISL,ioos:station:DISL:KATA:1,2017-12-05T17:00:00Z,30.2583,-88.2131,3.8,26.9,11111222 
DISL,ioos:station:DISL:KATA:1,2017-12-05T17:30:00Z,30.2583,-88.2131,3.84,26.75,1111122 
DISL,ioos:station:DISL:KATA:1,2017-12-05T18:00:00Z,30.2583,-88.2131,3.9,26.9,11111222 
DISL,ioos:station:DISL:KATA:1,2017-12-05T18:30:00Z,30.2583,-88.2131,3.918,26.65,1111122 
DISL,ioos:station:DISL:KATA:1,2017-12-05T19:00:00Z,30.2583,-88.2131,4.0,27.0,11111222 
DISL,ioos:station:DISL:KATA:1,2017-12-05T19:30:00Z,30.2583,-88.2131,3.98,26.8,1111122 
DISL,ioos:station:DISL:KATA:1,2017-12-05T20:00:00Z,30.2583,-88.2131,4.0,26.8,11111222 
DISL,ioos:station:DISL:KATA:1,2017-12-05T20:30:00Z,30.2583,-88.2131,4.046,26.91,1111122 
DISL,ioos:station:DISL:KATA:1,2017-12-05T21:00:00Z,30.2583,-88.2131,4.1,26.8,11111222 
DISL,ioos:station:DISL:KATA:1,2017-12-05T21:30:00Z,30.2583,-88.2131,4.113,26.94,1111122 
DISL,ioos:station:DISL:KATA:1,2017-12-05T22:00:00Z,30.2583,-88.2131,4.2,26.1,11111222 
DISL,ioos:station:DISL:KATA:1,2017-12-05T22:30:00Z,30.2583,-88.2131,4.18,26.36,1111122 
DISL,ioos:station:DISL:KATA:1,2017-12-05T23:00:00Z,30.2583,-88.2131,4.2,26.3,11111222 
DISL,ioos:station:DISL:KATA:1,2017-12-05T23:30:00Z,30.2583,-88.2131,4.243,26.68,1111122 
DISL,ioos:station:DISL:KATA:1,2017-12-06T00:00:00Z,30.2583,-88.2131,4.3,27.0,11111222 
DISL,ioos:station:DISL:KATA:1,2017-12-06T00:30:00Z,30.2583,-88.2131,4.321,26.78,1111122 
DISL,ioos:station:DISL:KATA:1,2017-12-06T01:00:00Z,30.2583,-88.2131,4.4,26.8,11111222 
DISL,ioos:station:DISL:KATA:1,2017-12-06T01:30:00Z,30.2583,-88.2131,4.409,26.54,1111122 
DISL,ioos:station:DISL:KATA:1,2017-12-06T02:00:00Z,30.2583,-88.2131,4.4,26.6,11111222 
DISL,ioos:station:DISL:KATA:1,2017-12-06T02:30:00Z,30.2583,-88.2131,4.468,26.61,1111122 
DISL,ioos:station:DISL:KATA:1,2017-12-06T03:00:00Z,30.2583,-88.2131,4.5,26.4,11111222 
DISL,ioos:station:DISL:KATA:1,2017-12-06T03:30:00Z,30.2583,-88.2131,4.491,26.91,1111122 
DISL,ioos:station:DISL:KATA:1,2017-12-06T04:00:00Z,30.2583,-88.2131,4.5,26.9,11111222 
DISL,ioos:station:DISL:KATA:1,2017-12-06T04:30:00Z,30.2583,-88.2131,4.52,26.77,1111122 
DISL,ioos:station:DISL:KATA:1,2017-12-06T05:00:00Z,30.2583,-88.2131,4.5,26.7,11111222 
DISL,ioos:station:DISL:KATA:1,2017-12-06T05:30:00Z,30.2583,-88.2131,4.398,26.77,1111122 
DISL,ioos:station:DISL:KATA:1,2017-12-06T06:00:00Z,30.2583,-88.2131,4.4,26.7,11111222 
DISL,ioos:station:DISL:KATA:1,2017-12-06T06:30:00Z,30.2583,-88.2131,4.372,26.75,1111122 
DISL,ioos:station:DISL:KATA:1,2017-12-06T07:00:00Z,30.2583,-88.2131,4.4,26.8,11111222 
DISL,ioos:station:DISL:KATA:1,2017-12-06T07:30:00Z,30.2583,-88.2131,4.333,26.58,1111122 
DISL,ioos:station:DISL:KATA:1,2017-12-06T08:00:00Z,30.2583,-88.2131,4.3,26.4,11111222 
DISL,ioos:station:DISL:KATA:1,2017-12-06T08:30:00Z,30.2583,-88.2131,4.267,26.46,1111122 
DISL,ioos:station:DISL:KATA:1,2017-12-06T09:00:00Z,30.2583,-88.2131,4.3,26.4,11111222 
DISL,ioos:station:DISL:KATA:1,2017-12-06T09:30:00Z,30.2583,-88.2131,4.176,26.07,1111122 
DISL,ioos:station:DISL:KATA:1,2017-12-06T10:00:00Z,30.2583,-88.2131,4.1,25.8,11111222 
DISL,ioos:station:DISL:KATA:1,2017-12-06T10:30:00Z,30.2583,-88.2131,4.063,25.34,1111122 
DISL,ioos:station:DISL:KATA:1,2017-12-06T11:00:00Z,30.2583,-88.2131,4.0,25.4,11111222 
DISL,ioos:station:DISL:KATA:1,2017-12-06T11:30:00Z,30.2583,-88.2131,3.921,25.4,1111122 
DISL,ioos:station:DISL:KATA:1,2017-12-06T12:00:00Z,30.2583,-88.2131,3.9,25.0,11111222 
DISL,ioos:station:DISL:KATA:1,2017-12-06T12:30:00Z,30.2583,-88.2131,3.815,24.86,1111122 
DISL,ioos:station:DISL:KATA:1,2017-12-06T13:00:00Z,30.2583,-88.2131,3.8,23.7,11111222 
DISL,ioos:station:DISL:KATA:1,2017-12-06T13:30:00Z,30.2583,-88.2131,3.772,24.35,1111122 
DISL,ioos:station:DISL:KATA:1,2017-12-06T14:00:00Z,30.2583,-88.2131,3.8,24.1,11111222 
DISL,ioos:station:DISL:KATA:1,2017-12-06T14:30:00Z,30.2583,-88.2131,3.73,24.29,1111122 
DISL,ioos:station:DISL:KATA:1,2017-12-06T15:00:00Z,30.2583,-88.2131,3.7,23.8,11111222 